Погода в Телсиаи

Поиск расширенной информации на нашем сайте:

Полезная информация:

Новости сайта



02.01.2020
Опубликован Долгосрочный прогноз погоды по городам России и ближнего зарубежья на январь 2020 года.
Карты: Прогноз на январь и февраль 2020 года, Сравнение прогнозируемой аномалии приземной температуры воздуха на январь 2020 года по разным моделям.




Погода в Телсиаи - сегодня

Время (UTC), дата Ветер
(°,м/с) 
Видим.   Явления Облачность Т
(°С)
Тd
(°С)
f(%) Тe
(°С)
Pmin
(гПа)
dP
(гПа)
Po
(мм)
O2
(г/м3)
Тmin Tmax R s Состояние
почвы
21 15.01.22 230 (ЮЗ) 2-4{06}  20000 м    5/0 
-1.3 -3.4 86 -2  1020.8  -0.3  751  304           
00 16.01.22 230 (ЮЗ) 3-5{05}  17000 м    4/0 
-1.2 -2.9 88 -3  1019.6  -1.1  750  304           
03 16.01.22 230 (ЮЗ) 4-7{07}  20000 м    10/0 
+0 -1.4 90 -2  1017.6  -1.9  749  302           
06 16.01.22 210 (ЮЗ) 4-7{09}  19000 м    9/9 200 м 
+0.7 -0.9 89 -2  1015  -2.5  747  300  -2         
09 16.01.22 230 (ЮЗ) 5-12{12}  5000 м  слаб. ливневой дождь  10/10 100 м 
+1 +0 93 -2  1014  -1  746  300           
12 16.01.22 230 (ЮЗ) 6-11{13}  9000 м  слаб. ливневой дождь  10/10 100 м 
+0.6 -0.4 93 -3  1011  -3  744  299      0.0     
15 16.01.22 220 (ЮЗ) 6-11{12}  1200 м  слаб. ливневой дождь  10/0 
-0.4 -0.7 98 -4  1007.8  -3.2  742  299           
18 16.01.22 230 (ЮЗ) 5-9{15}  2200 м  слаб. снег  10/10 100 м 
+0 -0.6 96 -3  1003.8  -3.9  739  298    +1.4  0.1     
21 16.01.22 260 (З) 7-12{14}  4900 м  слаб. ливневой дождь  10/10 200 м 
+2.4 +1.7 95 -1  999.3  -4.2  736  293           
00 17.01.22 260 (З) 7-15{16}  9000 м  слаб. дождь  10/10 200 м 
+3.4 +2.2 92 994.2  -5  732  291         
03 17.01.22 250 (З) 7-13{17}  7000 м  дождь  10/10 200 м 
+2.1 +0.3 88 -1  988.4  -5.8  727  291           
06 17.01.22 310 (СЗ) 6-10{18}  20000 м  в посл. час снег  10/10 300 м 
+0 -0.6 96 -3  986.5  -1.9  726  293  +0    10   
09 17.01.22 310 (СЗ) 6-13{19}  20000 м  слаб. ливневой снег  9/9 1000 м 
-0.7 -3 84 -4  992.1  5.4  730  295         
12 17.01.22 310 (СЗ) 9-17{21}  20000 м  в посл. час снег  9/9 1000 м 
+0.1 -3 80 -4  996  3.9  733  296      0.7   
15 17.01.22 330 (СЗ) 7-14{21}  20000 м    1/0 
-0.3 -5.4 68 -4  1004.2  739  299         
18 17.01.22 330 (СЗ) 6-11{17}  20000 м    ясно <0100 м 
-1 -7.6 61 -5  1011.5  7.1  744  302    +0.6  0.7   
21 17.01.22 300 (СЗ) 5-9{11}  20000 м    ясно <0100 м 
-1.3 -5.4 74 -5  1014.8  3.3  747  303         
00 18.01.22 300 (СЗ) 5-9{10}  20000 м    9/0 2000 м 
-0.8 -4.5 76 -4  1016.7  1.8  748  303         
03 18.01.22 320 (СЗ) 4-7{09}  20000 м    ясно 
-0.9 -3.8 81 -3  1019.5  2.8  750  304         
06 18.01.22 310 (СЗ) 4-6{08}  19000 м    ясно 
-1.6 -4.2 82 -4  1022.7  3.1  753  305  -1.8       
09 18.01.22 310 (СЗ) 4-6{07}  20000 м    ясно <0100 м 
-0.4 -4.2 75 -3  1025.9  3.2  755  305         
12 18.01.22 280 (З) 2-4{07}  19000 м    8/8 600 м 
+0.9 -3.5 72 1026.3  0.5  755  304         
15 18.01.22 270 (З) 2-5{06}  6000 м  дымка  4/4 600 м 
-0.5 -2.2 88 -1  1027.6  1.1  756  306         
18 18.01.22 250 (З) 3-7{07}  19000 м    5/0 
-0.7 -2.2 90 -3  1026.3  -1.2  755  305    +1.2     
21 18.01.22 230 (ЮЗ) 5-8{08}  20000 м    ясно <0100 м 
+0 -2.1 86 -3  1023.9  -2.3  754  304         
Время (UTC), дата Ветер
(°,м/с) 
Видим.   Явления Облачность Т
(°С)
Тd
(°С)
f(%) Тe
(°С)
Pmin
(гПа)
dP
(гПа)
Po
(мм)
O2
(г/м3)
Тmin Tmax R s Состояние
почвы

Для получения пояснительной информации подведите курсор к названию столбца.

ПОГОДА в Телсиаи - архив

Всё, что Вы хотите узнать о погоде в Телсиаи - удобно и подробно!

Выберите нужную дату (начиная с 1 января 2019* года) и нажмите кнопку "Найти".
Будут отображены архивные сводки погоды по пункту Телсиаи, начиная с указанной даты.


Отображать данные в формате CSV (для использования в таблицах Excel)


Внимание! Наш архив погоды предназначен исключительно для личного некоммерческого использования в познавательных целях. Если Вам необходимы официальные справки о состоянии погоды (для производственных, юридических, коммерческих и т.п. целей), обращайтесь в органы Росгидромета.

*Примечание: данная дата относится к архиву по метеостанциям СССР (Россия, СНГ, Балтия).
Архив по метеостанциям Зарубежной Европы и Азии (кроме Китая) хранится 10 дней, по другим регионам земного шара (Китай, Африка, Америка, Австралия, Океания) - 1 день.

Телсиаи - район местоположения метеостанции


Название, широта, долгота, высота метеостанции:
Телсиаи 56°ш. 22.2°д. 152 м над ур. моря [Литва]

Дополнительная информация

В oтличие oт бoльшинства пoгoдных сайтoв мы публикуем пoдрoбную метеoинфoрмацию в детальнoм прoфессиoнальнoм фoрмате.

Характеристики температуры и влажнoсти вoздуха измеряются на высoте 2 м в тени вдали oт зданий и деревьев.
Скoрoсть ветра измеряется на высoте 10 м (на урoвне рoста челoвека скoрoсть ветра ниже в 1.5-2 раза). Если метеoстанция нахoдится в гoрoде или в лесу, тo скoрoсть ветра занижена на 2-4 м/с пo сравнению с oткрытым местoм. Скoрoсть ветра над акватoриями крупных рек и oзёр, а также на вершинах хoлмoв на 2-5 м/с выше, чем в oбычных услoвиях.
Атмoсфернoе давление в разных тoчках местнoсти мoжет значительнo oтличаться oт давления на метеoстанции, в зависимoсти oт услoвий рельефа (при пoдъёме на 10 м давление пoнижается примернo на 1 мм рт.ст.).